#timestamp,LO_Frequency,Hit,StdDev 
1560438015.8,286047000.5,N
1560438035.7,286047001.0,N
1560438055.5,286047001.0,N
1560438075.3,286047001.0,N
1560438095.2,286047000.7,N
1560438115.9,286046998.6,N
1560438135.7,286046998.3,N
1560438155.6,286046999.6,N
1560438175.4,286046997.4,N
1560438195.2,286046999.6,N
1560438215.0,286046997.2,N
1560438216.0,286046997.2,N
1560438235.8,286046997.1,N
1560438255.6,286046999.1,N
1560438275.4,286046999.5,N
1560438295.3,286046999.0,N
1560438315.1,286046997.0,N
1560438335.8,286046997.2,N
1560438355.7,286046996.6,N
1560438375.5,286046996.5,N
1560438395.3,286046996.8,N
1560438415.2,286046999.6,N
1560438435.9,286046999.1,N
1560438455.7,286046996.8,N
1560438475.5,286046997.7,N
1560438495.4,286046997.1,N
1560438515.2,286046997.0,N
1560438535.0,286046997.6,N
1560438535.9,286046997.6,N
1560438555.8,286046997.4,N
1560438575.6,286046999.1,N
1560438595.4,286046996.5,N
1560438615.3,286046996.5,N
1560438635.1,286046997.4,N
1560438655.8,286046996.8,N
1560438675.7,286046996.9,N
1560438695.5,286046999.1,N
1560438715.3,286046996.6,Y
1560438735.2,286047001.2,P
1560438755.9,286046998.1,N
1560438775.7,286046998.3,N
1560438795.6,286046998.6,N
1560438815.4,286046999.1,N
1560438835.2,286046998.4,N
1560438855.0,286046998.5,N
1560438856.0,286046998.5,N
1560438875.8,286046999.1,N
1560438895.6,286046999.2,N
1560438915.4,286046999.3,N
1560438935.3,286046999.3,N
1560438955.1,286046998.8,N
1560438975.8,286046998.9,N
1560438995.7,286046998.2,N
1560439015.5,286046998.1,N
1560439035.3,286047000.6,N
1560439055.2,286047000.6,N
1560439075.9,286046998.8,N
1560439095.7,286046998.7,N
1560439115.5,286047001.1,N
1560439135.4,286046998.6,N
1560439155.2,286047000.9,N
1560439175.0,286046998.2,N
1560439175.9,286046998.2,N
1560439195.8,286046998.4,N
1560439215.6,286046998.4,N
1560439235.4,286046998.3,N
1560439255.3,286047001.1,N
1560439275.1,286047001.2,N
1560439276.0,286047001.2,N
1560439295.8,286046998.2,N
1560439315.7,286046998.3,N
1560439335.5,286046998.4,N
1560439355.3,286046998.9,N
1560439375.1,286046999.0,N
1560439395.9,286046999.6,N
1560439415.7,286046999.5,N
1560439435.5,286046999.5,N
1560439455.4,286046999.6,N
1560439475.2,286046996.7,Y
1560439495.0,286046996.7,P
1560439495.9,286046996.7,N
1560439515.8,286046997.9,N
1560439535.6,286046995.0,Y
1560439555.4,286046998.4,P
1560439575.3,286046998.5,P
1560439595.1,286047001.2,P
1560439615.8,286047000.0,N
1560439635.7,286047000.7,N
1560439655.5,286047000.5,N
1560439675.3,286046999.7,N
1560439695.2,286047002.5,N
1560439715.9,286047001.9,N
1560439735.7,286047002.5,N
1560439755.6,286047001.8,N
1560439775.4,286047001.9,N
1560439795.2,286047002.4,N
1560439815.0,286047002.1,N
1560439815.9,286047002.1,N
1560439835.8,286047002.2,N
1560439855.6,286046999.8,N
1560439875.4,286047000.2,N
1560439895.3,286047002.6,N
1560439915.1,286047002.3,N
1560439935.8,286047002.4,N
1560439955.7,286047002.6,N
1560439975.5,286047002.3,N
1560439995.3,286046999.9,N
1560440015.2,286047002.7,N
1560440035.9,286047000.1,N
1560440055.7,286047002.8,N
1560440075.5,286046999.8,N
1560440095.4,286047002.3,N
1560440115.2,286047000.3,N
1560440135.0,286047000.7,N
1560440135.9,286047000.7,N
1560440155.8,286046999.7,N
1560440175.6,286047002.1,N
1560440195.4,286047001.6,N
1560440215.3,286047002.1,N
1560440235.1,286047001.9,N
1560440236.0,286047001.9,N
1560440255.8,286047004.3,Y
1560440275.7,286047000.6,P
1560440295.5,286047002.7,P
1560440315.3,286047002.8,P
1560440335.2,286047002.8,Y
1560440355.9,286047000.7,P
1560440375.7,286047000.8,N
1560440395.6,286046998.5,N
1560440415.4,286046998.1,N
1560440435.2,286047001.2,N
1560440455.0,286046998.5,N
1560440456.0,286046998.5,N
1560440475.8,286046998.7,N
1560440495.6,286046998.1,N
1560440515.4,286047001.2,N
1560440535.3,286046998.6,N
1560440555.1,286047000.5,N
1560440575.8,286047002.1,N
1560440595.7,286047001.9,N
1560440615.5,286046999.8,N
1560440635.3,286047000.0,N
1560440655.2,286046998.5,N
1560440675.9,286046999.7,N
1560440695.7,286047002.4,N
1560440715.5,286047002.6,N
1560440735.4,286046999.7,N
1560440755.2,286047000.5,N
1560440775.0,286047000.9,N
1560440775.9,286047000.9,N
1560440795.8,286047002.4,N
1560440815.6,286047002.6,N
1560440835.4,286046999.7,N
1560440855.3,286047004.4,N
1560440875.1,286047001.7,N
1560440876.0,286047001.7,N
1560440895.8,286047004.1,N
1560440915.7,286047004.1,N
1560440935.5,286047004.0,N
1560440955.3,286047004.4,N
1560440975.1,286047003.8,N
1560440995.9,286047005.9,N
1560441015.7,286047004.8,N
1560441035.5,286047005.3,N
1560441055.4,286047007.6,Y
1560441075.2,286047005.4,P
1560441095.0,286047005.6,P
1560441095.9,286047005.6,P
1560441115.8,286047006.0,Y
1560441135.6,286047000.3,P
1560441155.4,286047000.5,N
1560441175.3,286047000.0,N
1560441195.1,286047000.3,N
1560441215.8,286046999.9,N
1560441235.7,286047000.8,N
1560441255.5,286047000.5,N
1560441275.3,286047000.8,N
1560441295.2,286046998.1,N
1560441315.9,286046999.9,N
1560441335.7,286046999.8,N
1560441355.6,286047000.3,N
1560441375.4,286046999.8,N
1560441395.2,286047002.5,N
1560441415.0,286047001.8,N
1560441415.9,286047001.8,N
1560441435.8,286047004.3,Y
1560441455.6,286047001.8,P
1560441475.4,286047002.1,P
1560441495.3,286047002.4,P
1560441515.1,286047000.2,N
1560441535.8,286047002.1,N
1560441555.7,286047001.5,N
1560441575.5,286047001.9,N
1560441595.3,286047001.4,N
